Location: Vinland
(47.7731°N, 122.6974°W)
Time: 18:45:01
(UTC+00:00)

Vanguard 1 Rocket - Pass Details

Date: 22 March 2023
Orbit: 655 x 4220 km, 34.3° (Epoch: 05 June)

Event Time Altitude Azimuth Distance (km) Brightness Sun altitude
Exits shadow 10:09:06 22° 131° (SE) 2,771 9.7 -35.9°
Drops below altitude 10° 10:11:30 10° 118° (ESE) 3,289 10.3 -35.7°
Sets 10:13:53 0° 111° (ESE) 3,957 10.9 -35.4°
